This is the latest recevied weather packets stored in our database for station/object KC4JES. If no packets are shown the sender has not sent any weather packets the latest 10 day(s).
| Time | Temp. | Humidity | Pressure | Rain* | Wind** | Luminosity | Snow |
|---|---|---|---|---|---|---|---|
| 1777857796 | 19.44° C | 66% | 1018.7 hPa | 0 mm | - | 0 W/m² | - |
| 1777857494 | 18.89° C | 66% | 1018.4 hPa | 0 mm | - | 0 W/m² | - |
| 1777857190 | 19.44° C | 66% | 1018.5 hPa | 0 mm | - | 0 W/m² | - |
| 1777856886 | 18.89° C | 66% | 1018.4 hPa | 0 mm | - | 0 W/m² | - |
| 1777856581 | 19.44° C | 65% | 1018.4 hPa | 0 mm | - | 0 W/m² | - |
| 1777856279 | 19.44° C | 65% | 1018.3 hPa | 0 mm | - | 0 W/m² | - |
| 1777855976 | 18.89° C | 65% | 1018.3 hPa | 0 mm | - | 0 W/m² | - |
| 1777855673 | 18.89° C | 66% | 1018.4 hPa | 0 mm | - | 0 W/m² | - |
| 1777855371 | 18.89° C | 65% | 1018.5 hPa | 0 mm | - | 0 W/m² | - |
| 1777855067 | 18.89° C | 65% | 1018.3 hPa | 0 mm | - | 0 W/m² | - |
| 1777854764 | 18.89° C | 65% | 1018.3 hPa | 0 mm | - | 0 W/m² | - |
| 1777854460 | 18.89° C | 66% | 1018.3 hPa | 0 mm | - | 0 W/m² | - |
| 1777854157 | 18.89° C | 66% | 1018.3 hPa | 0 mm | - | 0 W/m² | - |
| 1777853855 | 18.89° C | 63% | 1018.4 hPa | 0 mm | - | 0 W/m² | - |
| 1777853552 | 18.89° C | 63% | 1018.5 hPa | 0 mm | - | 1 W/m² | - |
| 1777853248 | 18.89° C | 63% | 1018.6 hPa | 0 mm | - | 1 W/m² | - |
| 1777852945 | 19.44° C | 65% | 1018.4 hPa | 0 mm | - | 2 W/m² | - |
| 1777852644 | 19.44° C | 61% | 1018.4 hPa | 0 mm | - | 4 W/m² | - |
| 1777852340 | 19.44° C | 62% | 1018.7 hPa | 0 mm | - | 6 W/m² | - |
| 1777852038 | 20° C | 60% | 1018.4 hPa | 0 mm | - | 8 W/m² | - |
| 1777851736 | 20° C | 63% | 1018.6 hPa | 0 mm | - | 10 W/m² | - |
| 1777851433 | 20° C | 61% | 1018.6 hPa | 0 mm | - | 14 W/m² | - |
| 1777851128 | 20° C | 59% | 1018.2 hPa | 0 mm | - | 17 W/m² | - |
| 1777850825 | 20° C | 60% | 1018.3 hPa | 0 mm | - | 21 W/m² | - |
| 1777850522 | 20° C | 58% | 1018.3 hPa | 0 mm | - | 24 W/m² | - |
* Rain latest hour (hover to see other rain measurements)
** Current wind speed in m/s (hover to see current wind gust speed)